Wadena, MN

1:28 AM CDT on August 19, 2017 (GMT -0500)
Wadena Municipal

Weather History for KADC - October, 2014

Change the Weather History Date:

Friday, October 3, 2014

  Actual Average Record
Temperature  
Mean Temperature 42 °F -  
Max Temperature 48 °F 61 °F 82 °F (1938)
Min Temperature 35 °F 36 °F 19 °F (1936)
Degree Days  
Heating Degree Days 24    
Moisture  
Dew Point 32 °F    
Average Humidity 78    
Maximum Humidity 93    
Minimum Humidity 65    
Precipitation  
Precipitation 0.00 in - - ()
Sea Level Pressure  
Sea Level Pressure 29.82 in    
Wind  
Wind Speed 18 mph (WNW)    
Max Wind Speed 26 mph    
Max Gust Speed 39 mph    
Visibility 10 miles    
Events Rain    
Averages and records for this station are not official NWS values.
T = Trace of Precipitation, MM = Missing Value Source: NWS Daily Summary

Daily Weather History Graph

Daily Weather History Graph

Search for Another Location

Airport or City:

Trip Planner

Search our weather history database for the weather conditions in past years. The results will help you decide how hot, cold, wet, or windy it might be!

Date:

Astronomy

Oct. 03, 2014 Rise Set
Actual Time 7:22 AM CDT 6:56 PM CDT
Civil Twilight 6:52 AM CDT 7:26 PM CDT
Nautical Twilight 6:17 AM CDT 8:01 PM CDT
Astronomical Twilight 5:41 AM CDT 8:36 PM CDT
Moon 4:06 PM CDT (10/3) 1:26 AM CDT (10/3)
Length of Visible Light 12h 34m
Length of Day
11h 34m
Waxing Gibbous, 71% of the Moon is Illuminated
Oct 3
Waxing Gibbous
Oct 8
Full
Oct 15
Last Quarter
Oct 23
New
Oct 30
First Quarter

Hourly Weather History & Observations

Time (CDT) Temp. Windchill Dew Point Humidity Pressure Visibility Wind Dir Wind Speed Gust Speed Precip Events Conditions
12:14 AM 48.2 °F - 42.8 °F 82% 29.76 in 10.0 mi WNW 13.8 mph 18.4 mph N/A   Overcast
12:35 AM 46.4 °F 39.8 °F 42.8 °F 87% 29.76 in 10.0 mi WNW 16.1 mph 24.2 mph N/A   Overcast
12:52 AM 46.4 °F 40.1 °F 41.0 °F 81% 29.77 in 10.0 mi WNW 15.0 mph 25.3 mph N/A   Overcast
1:09 AM 46.4 °F 39.8 °F 41.0 °F 81% 29.77 in 10.0 mi WNW 16.1 mph 27.6 mph N/A   Overcast
1:34 AM 44.6 °F 37.4 °F 39.2 °F 81% 29.78 in 10.0 mi WNW 16.1 mph 27.6 mph N/A   Overcast
1:52 AM 44.6 °F 37.8 °F 39.2 °F 81% 29.79 in 10.0 mi WNW 15.0 mph 24.2 mph N/A   Overcast
2:15 AM 42.8 °F 35.1 °F 39.2 °F 87% 29.80 in 5.0 mi WNW 16.1 mph 25.3 mph N/A   Overcast
2:35 AM 42.8 °F 36.2 °F 39.2 °F 87% 29.80 in 4.0 mi WNW 12.7 mph 21.9 mph N/A Rain Rain
2:52 AM 42.8 °F 36.2 °F 39.2 °F 87% 29.80 in 5.0 mi WNW 12.7 mph 23.0 mph N/A   Drizzle
3:14 AM 41.0 °F 31.6 °F 39.2 °F 93% 29.79 in 10.0 mi WNW 20.7 mph 28.8 mph N/A   Overcast
3:35 AM 41.0 °F 32.2 °F 39.2 °F 93% 29.79 in 10.0 mi WNW 18.4 mph 26.5 mph N/A   Overcast
3:52 AM 41.0 °F 33.5 °F 37.4 °F 87% 29.79 in 10.0 mi WNW 13.8 mph 23.0 mph N/A   Overcast
4:15 AM 41.0 °F 33.9 °F 37.4 °F 87% 29.79 in 10.0 mi WNW 12.7 mph 25.3 mph N/A   Overcast
4:35 AM 39.2 °F 30.5 °F 37.4 °F 93% 29.78 in 7.0 mi WNW 16.1 mph 24.2 mph N/A   Drizzle
4:53 AM 39.2 °F 30.8 °F 37.4 °F 93% 29.78 in 10.0 mi WNW 15.0 mph 26.5 mph N/A   Overcast
5:15 AM 39.2 °F 29.8 °F 37.4 °F 93% 29.78 in 10.0 mi WNW 18.4 mph 26.5 mph N/A   Light Drizzle
5:35 AM 39.2 °F 30.2 °F 37.4 °F 93% 29.79 in 10.0 mi NW 17.3 mph 29.9 mph N/A   Overcast
5:53 AM 39.2 °F 29.8 °F 35.6 °F 87% 29.79 in 10.0 mi WNW 18.4 mph 31.1 mph N/A   Overcast
6:14 AM 39.2 °F 29.3 °F 35.6 °F 87% 29.80 in 5.0 mi NW 20.7 mph 31.1 mph N/A   Drizzle
6:35 AM 37.4 °F 27.8 °F 35.6 °F 93% 29.80 in 10.0 mi NW 17.3 mph 31.1 mph N/A   Drizzle
6:53 AM 37.4 °F 25.6 °F 35.6 °F 93% 29.81 in 10.0 mi NW 26.5 mph 33.4 mph N/A Rain Light Rain
7:14 AM 37.4 °F 26.6 °F 33.8 °F 87% 29.82 in 10.0 mi WNW 21.9 mph 35.7 mph N/A   Drizzle
7:35 AM 35.6 °F 25.2 °F 33.8 °F 93% 29.82 in 10.0 mi WNW 18.4 mph 35.7 mph N/A   Drizzle
7:52 AM 35.6 °F 25.9 °F 33.8 °F 93% 29.83 in 10.0 mi WNW 16.1 mph 32.2 mph N/A   Light Drizzle
8:15 AM 35.6 °F 26.2 °F 32.0 °F 87% 29.83 in 10.0 mi WNW 15.0 mph 28.8 mph N/A   Overcast
8:35 AM 35.6 °F 27.1 °F 32.0 °F 87% 29.84 in 10.0 mi WNW 12.7 mph 39.1 mph N/A   Overcast
8:53 AM 35.6 °F 24.5 °F 32.0 °F 87% 29.84 in 10.0 mi WNW 20.7 mph 24.2 mph N/A   Light Drizzle
9:14 AM 35.6 °F 24.5 °F 30.2 °F 81% 29.84 in 10.0 mi WNW 20.7 mph 31.1 mph N/A   Overcast
9:35 AM 35.6 °F 24.8 °F 30.2 °F 81% 29.84 in 10.0 mi NW 19.6 mph 32.2 mph N/A   Overcast
9:52 AM 37.4 °F 25.6 °F 28.4 °F 70% 29.84 in 10.0 mi NW 26.5 mph 34.5 mph N/A   Overcast
10:15 AM 37.4 °F 26.9 °F 28.4 °F 70% 29.84 in 10.0 mi NW 20.7 mph 29.9 mph N/A   Overcast
10:35 AM 37.4 °F 26.4 °F 28.4 °F 70% 29.84 in 10.0 mi WNW 23.0 mph 35.7 mph N/A   Overcast
10:52 AM 37.4 °F 26.4 °F 28.4 °F 70% 29.84 in 10.0 mi NW 23.0 mph 33.4 mph N/A   Overcast
11:15 AM 37.4 °F 25.6 °F 28.4 °F 70% 29.84 in 10.0 mi NW 26.5 mph 33.4 mph N/A   Overcast
11:35 AM 39.2 °F 29.6 °F 28.4 °F 65% 29.84 in 10.0 mi NW 19.6 mph 29.9 mph N/A   Overcast
11:53 AM 39.2 °F 29.3 °F 28.4 °F 65% 29.84 in 10.0 mi WNW 20.7 mph 32.2 mph N/A   Mostly Cloudy
12:14 PM 37.4 °F 27.8 °F 28.4 °F 70% 29.84 in 10.0 mi WNW 17.3 mph 34.5 mph N/A   Overcast
12:35 PM 37.4 °F 26.1 °F 28.4 °F 70% 29.84 in 10.0 mi WNW 24.2 mph 34.5 mph N/A   Overcast
12:53 PM 37.4 °F 26.6 °F 28.4 °F 70% 29.84 in 10.0 mi WNW 21.9 mph 33.4 mph N/A   Overcast
1:14 PM 37.4 °F 27.5 °F 28.4 °F 70% 29.83 in 10.0 mi WNW 18.4 mph 31.1 mph N/A   Overcast
1:35 PM 39.2 °F 28.5 °F 28.4 °F 65% 29.82 in 10.0 mi NW 24.2 mph 33.4 mph N/A   Mostly Cloudy
1:52 PM 39.2 °F 29.0 °F 28.4 °F 65% 29.83 in 10.0 mi WNW 21.9 mph 31.1 mph N/A   Mostly Cloudy
2:15 PM 39.2 °F 29.3 °F 28.4 °F 65% 29.82 in 10.0 mi NW 20.7 mph 31.1 mph N/A   Mostly Cloudy
2:35 PM 39.2 °F 30.8 °F 28.4 °F 65% 29.82 in 10.0 mi WNW 15.0 mph 31.1 mph N/A   Mostly Cloudy
2:53 PM 39.2 °F 28.0 °F 28.4 °F 65% 29.83 in 10.0 mi WNW 26.5 mph 33.4 mph N/A   Overcast
3:15 PM 39.2 °F 28.5 °F 28.4 °F 65% 29.83 in 10.0 mi NW 24.2 mph 33.4 mph N/A   Mostly Cloudy
3:35 PM 37.4 °F 27.8 °F 30.2 °F 75% 29.84 in 10.0 mi NW 17.3 mph 31.1 mph N/A Rain Light Rain
3:52 PM 39.2 °F 29.0 °F 28.4 °F 65% 29.84 in 10.0 mi WNW 21.9 mph 31.1 mph N/A   Mostly Cloudy
4:14 PM 39.2 °F 30.2 °F 28.4 °F 65% 29.84 in 10.0 mi WNW 17.3 mph 35.7 mph N/A   Overcast
4:34 PM 39.2 °F 30.5 °F 28.4 °F 65% 29.84 in 10.0 mi WNW 16.1 mph 27.6 mph N/A   Overcast
4:53 PM 37.4 °F 27.2 °F 28.4 °F 70% 29.84 in 10.0 mi WNW 19.6 mph 31.1 mph N/A Rain Light Rain
5:15 PM 37.4 °F 26.1 °F 28.4 °F 70% 29.84 in 10.0 mi WNW 24.2 mph 31.1 mph N/A Rain Light Rain
5:35 PM 37.4 °F 28.2 °F 30.2 °F 75% 29.85 in 10.0 mi WNW 16.1 mph 28.8 mph N/A   Light Drizzle
5:52 PM 35.6 °F 25.5 °F 28.4 °F 75% 29.85 in 10.0 mi WNW 17.3 mph 31.1 mph N/A   Light Drizzle
6:15 PM 35.6 °F 24.5 °F 28.4 °F 75% 29.85 in 10.0 mi WNW 20.7 mph 31.1 mph N/A   Mostly Cloudy
6:35 PM 37.4 °F 28.9 °F 28.4 °F 70% 29.85 in 10.0 mi WNW 13.8 mph 20.7 mph N/A   Mostly Cloudy
6:53 PM 37.4 °F 26.4 °F 28.4 °F 70% 29.85 in 10.0 mi WNW 23.0 mph 32.2 mph N/A   Mostly Cloudy
7:15 PM 35.6 °F 25.5 °F 30.2 °F 81% 29.85 in 10.0 mi WNW 17.3 mph 32.2 mph N/A   Overcast
7:35 PM 35.6 °F 26.2 °F 30.2 °F 81% 29.85 in 10.0 mi WNW 15.0 mph 32.2 mph N/A   Light Drizzle
7:52 PM 35.6 °F 25.9 °F 30.2 °F 81% 29.84 in 10.0 mi WNW 16.1 mph 25.3 mph N/A Rain Light Rain
8:14 PM 35.6 °F 26.2 °F 30.2 °F 81% 29.84 in 10.0 mi WNW 15.0 mph 24.2 mph N/A   Overcast
8:34 PM 35.6 °F 25.2 °F 30.2 °F 81% 29.84 in 10.0 mi WNW 18.4 mph 26.5 mph N/A   Overcast
8:53 PM 35.6 °F 24.8 °F 30.2 °F 81% 29.84 in 10.0 mi WNW 19.6 mph 32.2 mph N/A   Drizzle
9:15 PM 35.6 °F 24.5 °F 30.2 °F 81% 29.84 in 10.0 mi NW 20.7 mph 32.2 mph N/A   Light Drizzle
9:35 PM 35.6 °F 23.7 °F 28.4 °F 75% 29.84 in 10.0 mi NW 24.2 mph 32.2 mph N/A   Overcast
9:53 PM 37.4 °F 25.9 °F 28.4 °F 70% 29.84 in 10.0 mi NW 25.3 mph 33.4 mph N/A   Overcast
10:15 PM 37.4 °F 26.9 °F 28.4 °F 70% 29.83 in 10.0 mi NW 20.7 mph 28.8 mph N/A   Overcast
10:34 PM 37.4 °F 27.2 °F 26.6 °F 65% 29.84 in 10.0 mi NW 19.6 mph 28.8 mph N/A   Overcast
10:53 PM 37.4 °F 27.2 °F 26.6 °F 65% 29.83 in 10.0 mi NW 19.6 mph 31.1 mph N/A   Overcast
11:15 PM 37.4 °F 26.4 °F 26.6 °F 65% 29.83 in 10.0 mi WNW 23.0 mph 29.9 mph N/A   Overcast
11:35 PM 37.4 °F 26.1 °F 26.6 °F 65% 29.83 in 10.0 mi NW 24.2 mph 35.7 mph N/A   Overcast
11:53 PM 37.4 °F 25.9 °F 26.6 °F 65% 29.82 in 10.0 mi NW 25.3 mph 33.4 mph N/A   Overcast